Regional Weather Roundup
Issued by NWS

Home | Current Version | Previous Version | Graphics & Text | Print | Product List | Glossary On
Versions: 1 2 3 4 5 6 7 8 9 10 11 12 13 14 15 16 17 18 19 20 21 22 23 24 25 26 27 28 29 30 31 32 33 34 35 36 37 38 39 40 41 42 43 44 45 46 47 48 49 50
743
ASUS43 KLMK 221110
RWRKY
KENTUCKY REGIONAL WEATHER ROUNDUP
NATIONAL WEATHER SERVICE LOUISVILLE KY
700 AM EDT SUN OCT 22 2017

NOTE "FAIR" INDICATES FEW OR NO CLOUDS BELOW 12,000 FEET
WITH NO SIGNIFICANT WEATHER AND/OR OBSTRUCTIONS TO VISIBILITY.

KYZ001>023-026-027-061>063-070>075-221200-
WESTERN AND SOUTH CENTRAL KENTUCKY

CITY           SKY/WX    TMP DP  RH WIND       PRES   REMARKS
PADUCAH        CLOUDY    68  59  73 S13G20    30.01S
HENDERSON      CLOUDY    62  55  77 SE9       30.06F
OWENSBORO      CLOUDY    62  54  74 SE13      30.10R
HOPKINSVILLE   CLOUDY    63  56  77 SE9       30.08F
BOWLING GREEN  PTCLDY    56  53  90 CALM      30.14R
GLASGOW        MOCLDY    63  49  62 S9        30.16R
$$

KYZ024-025-028>034-038-045-046-053-221200-
NORTH CENTRAL KENTUCKY

CITY           SKY/WX    TMP DP  RH WIND       PRES   REMARKS
LOUISVILLE/SDF CLOUDY    58  50  75 SE6       30.14S
LOUISVILLE/LOU CLOUDY    59  51  75 VRB5      30.15S
FORT KNOX      CLOUDY    60  49  68 SE6       30.13R
$$

KYZ035>037-039>044-047>052-055>060-089>105-221200-
NORTHEAST KENTUCKY

CITY           SKY/WX    TMP DP  RH WIND       PRES   REMARKS
LEXINGTON      CLEAR     59  48  67 SE12      30.20S
COVINGTON      PTCLDY    55  49  80 S9        30.17S
FRANKFORT      CLEAR     57  46  66 SE7       30.17S
$$

KYZ054-064>069-076>088-106>120-221200-
SOUTHEAST KENTUCKY

CITY           SKY/WX    TMP DP  RH WIND       PRES   REMARKS
JACKSON        CLEAR     53  48  83 CALM      30.26S
LONDON         CLEAR     46  43  89 CALM      30.23F
SOMERSET       CLEAR     48  48 100 CALM      30.24R
MIDDLESBORO    CLEAR     44  44 100 CALM      30.28S
MONTICELLO     SUNNY     58  50  75 NE7       30.23R
$$





USA.gov is the U.S. government's official web portal to all federal, state and local government web resources and services.